"Pseudo-MPEC" for P20UhmJ

Created 2019 Nov 13 10:07:16 UT using Find_Orb

Click here for an explanation of pseudo-MPECs

 
 Astrometry: 
     P20UhmJ  C2019 11 08?l^=wH,kYqAstrometry[w[?leq_xB=*redacted;1Gd(-dl0]8HF52
     P20UhmJ  C2019 11 08!6Ja[*2p[m6Mm!E-AJ^-K52A[clickB$tE%doAEySZ!RbH-aUa\YF52
     P20UhmJ  C2019 11 08Fi*XC:9Hh8'R-HQaVmuWy]%-xhere5n[nn$yq]o:Qbfor?xK.FoVF52
     P20UhmJ  C2019 11 08JD3#\m0Z(Y;P't)xWymbac[bexplanationa,Jbbsf=,jyST45g)F52
     P20UhmJ  C2019 11 09.34675105 03 16.07 -04 13 36.7    ~B99M 20.4 GVNEOCPH01
     P20UhmJ  C2019 11 09.35413905 03 14.98 -04 13 13.9    ~B99M 20.6 GVNEOCPH01
     P20UhmJ  C2019 11 09.36235405 03 13.77 -04 12 48.5    ~B99M 20.4 GVNEOCPH01
     P20UhmJ  C2019 11 09.37509805 03 11.89 -04 12 08.9    ~B99M 20.6 GVNEOCPH01

Station data:
(F52) Pan-STARRS 2, Haleakala  (N20.707384 W156.255910)  US/Hawaii. 1.8-m
   Ritchey-Chrétien + CCD.
(H01) Magdalena Ridge Observatory, Socorro  (N33.984833 W107.189333)  US/New
   Mexico.  Observers W. H. Ryan, E. V. Ryan. Measurer W. H. Ryan. 2.4-m
   f/8.9 reflector + CCD.

Orbital elements:  P20UhmJ
   Perihelion 2019 Sep 23.077196 +/- 1.76 TT =  1:51:09 (JD 2458749.577196)
Epoch 2019 Nov  9.0 TT = JDT 2458796.5   Earth MOID: 0.0215   Ma: 0.0880
M  12.59778836 +/- 4.0              (J2000 ecliptic)          AutoNEOCP
n   0.26847901 +/- 0.0744           Peri.  233.31563 +/- 11
a   2.37973801 +/- 0.44             Node   119.89436 +/- 11
e   0.6047340 +/- 0.0782            Incl.    4.26255 +/- 0.41
P   3.67                   H 23.0   G  0.15   U 11.0  
q 0.94062947 +/- 0.0121    Q 3.81884654 +/- 0.894
From 8 observations 2019 Nov. 8-9 (19.0 hr); mean residual 0".05
Residuals in arcseconds: 
191108 F52  .01+  .01-    191108 F52  .09-  .07-    191109 H01  .02+  .07-    
191108 F52  .01+  .06+    191109 H01  .04-  .04+    191109 H01  .05+  .07+    
191108 F52  .08+  .02+    191109 H01  .03-  .04-    

Ephemerides (geocentric):
Date (UTC) HH   RA              Dec         delta   r     elong  mag " sig PA
---- -- -- --  -------------   -----------  ------ ------ -----  --- ---- ---
2019 11 13 10  04 55 00.731   -01 02 10.77  .19841 1.1633 148.4 21.0 73.3 143
2019 11 13 11  04 54 55.997   -01 00 24.36  .19866 1.1636 148.5 21.0 74.5 143
2019 11 13 12  04 54 51.270   -00 58 38.14  .19891 1.1639 148.5 21.0 75.6 143
2019 11 13 13  04 54 46.548   -00 56 52.12  .19916 1.1642 148.6 21.0 76.8 143
2019 11 13 14  04 54 41.833   -00 55 06.30  .19941 1.1645 148.6 21.0 78.0 143
2019 11 13 15  04 54 37.124   -00 53 20.68  .19966 1.1648 148.7 21.0 79.2 143
2019 11 13 16  04 54 32.421   -00 51 35.25  .19991 1.1651 148.8 21.0 80.5 143
2019 11 13 17  04 54 27.724   -00 49 50.03  .20016 1.1654 148.8 21.0 81.7 143
2019 11 13 18  04 54 23.034   -00 48 04.99  .20041 1.1657 148.9 21.0 82.9 143
2019 11 13 19  04 54 18.349   -00 46 20.15  .20066 1.1660 148.9 21.0 84.1 143
2019 11 13 20  04 54 13.671   -00 44 35.51  .20091 1.1663 149.0 21.0 85.4 143
2019 11 13 21  04 54 08.999   -00 42 51.06  .20116 1.1666 149.1 21.0 86.6 143
2019 11 13 22  04 54 04.333   -00 41 06.80  .20141 1.1670 149.1 21.0 87.9 143
2019 11 13 23  04 53 59.672   -00 39 22.74  .20166 1.1673 149.2 21.0 89.1 143
2019 11 14 00  04 53 55.018   -00 37 38.87  .20191 1.1676 149.2 21.0 90.4 143
2019 11 14 01  04 53 50.370   -00 35 55.19  .20216 1.1679 149.3 21.0 91.7 143
2019 11 14 02  04 53 45.728   -00 34 11.70  .20241 1.1682 149.4 21.0 92.9 143
2019 11 14 03  04 53 41.092   -00 32 28.41  .20266 1.1685 149.4 21.0 94.2 143
2019 11 14 04  04 53 36.462   -00 30 45.30  .20292 1.1688 149.5 21.0 95.5 143
2019 11 14 05  04 53 31.838   -00 29 02.38  .20317 1.1691 149.5 21.0 96.8 143
2019 11 14 06  04 53 27.220   -00 27 19.66  .20342 1.1694 149.6 21.0 98.1 143
2019 11 14 07  04 53 22.608   -00 25 37.12  .20367 1.1697 149.7 21.0 99.4 143
2019 11 14 08  04 53 18.002   -00 23 54.77  .20392 1.1700 149.7 21.0  101 143
2019 11 14 09  04 53 13.402   -00 22 12.60  .20418 1.1704 149.8 21.0  102 143
2019 11 14 10  04 53 08.808   -00 20 30.63  .20443 1.1707 149.8 21.0  103 143
2019 11 14 11  04 53 04.220   -00 18 48.84  .20468 1.1710 149.9 21.0  105 143
2019 11 14 12  04 52 59.637   -00 17 07.23  .20494 1.1713 150.0 21.0  106 143
2019 11 14 13  04 52 55.061   -00 15 25.81  .20519 1.1716 150.0 21.0  107 143
2019 11 14 14  04 52 50.490   -00 13 44.58  .20544 1.1719 150.1 21.0  109 143
2019 11 14 15  04 52 45.925   -00 12 03.53  .20570 1.1722 150.1 21.0  110 143
2019 11 14 16  04 52 41.367   -00 10 22.67  .20595 1.1725 150.2 21.0  111 143
2019 11 14 17  04 52 36.814   -00 08 41.99  .20620 1.1728 150.3 21.1  113 143
2019 11 14 18  04 52 32.267   -00 07 01.49  .20646 1.1731 150.3 21.1  114 143
2019 11 14 19  04 52 27.725   -00 05 21.17  .20671 1.1735 150.4 21.1  116 143
2019 11 14 20  04 52 23.190   -00 03 41.04  .20697 1.1738 150.4 21.1  117 143
2019 11 14 21  04 52 18.660   -00 02 01.08  .20722 1.1741 150.5 21.1  118 143
2019 11 14 22  04 52 14.136   -00 00 21.31  .20748 1.1744 150.5 21.1  120 143
2019 11 14 23  04 52 09.618   +00 01 18.28  .20773 1.1747 150.6 21.1  121 143
2019 11 15 00  04 52 05.106   +00 02 57.69  .20799 1.1750 150.7 21.1  123 143
2019 11 15 01  04 52 00.599   +00 04 36.93  .20824 1.1753 150.7 21.1  124 143
2019 11 15 02  04 51 56.099   +00 06 15.98  .20850 1.1756 150.8 21.1  125 143
2019 11 15 03  04 51 51.604   +00 07 54.86  .20875 1.1759 150.8 21.1  127 143
2019 11 15 04  04 51 47.114   +00 09 33.55  .20901 1.1763 150.9 21.1  128 143
2019 11 15 05  04 51 42.631   +00 11 12.07  .20927 1.1766 151.0 21.1  130 143
2019 11 15 06  04 51 38.153   +00 12 50.42  .20952 1.1769 151.0 21.1  131 143
2019 11 15 07  04 51 33.681   +00 14 28.59  .20978 1.1772 151.1 21.1  132 143
2019 11 15 08  04 51 29.215   +00 16 06.58  .21004 1.1775 151.1 21.1  134 143
2019 11 15 09  04 51 24.754   +00 17 44.39  .21029 1.1778 151.2 21.1  135 143